Flag for Australia Weather past 2 weeks in The Settlement, Christmas Island, Australia

Now
79 °F

Mostly cloudy.


Feels Like: 82 °F
Forecast: 77 / 83 °F
Wind: 8 mph from Southeast

Location: Christmas Island Aerodrome

Current Time: Dec 21, 2014 at 9:07:43 AM

Latest Report: Dec 21, 2014 at 8:00 AM


Visibility: N/A

Pressure: 29.83 "Hg

Humidity: 89%

Dew point: 75 °F

Location of The SettlementLocation

Historic Weather in The Settlement — Graph

°F

The Settlement temperature yesterday

Maximum temperature yesterday: 77 °F (at 10:00 AM)
Minimum temperature yesterday: 75 °F (at 12:03 AM)
Average temperature yesterday: 76 °F

Past Weeks' High & Low Weather Summary

 TemperatureHumidityPressure
High84 °F (Dec 16, 12:00 PM)100% (Dec 7, 9:00 PM)29.95 "Hg (Dec 7, 9:00 PM)
Low72 °F (Dec 8, 5:00 AM)66% (Dec 6, 10:00 AM)29.77 "Hg (Dec 17, 4:00 PM)
Average77 °F89%29.87 "Hg
* Reported Dec 6 8:00 AM — Dec 21 8:00 AM, The Settlement, Weather by CustomWeather, © 2014

Note: Actual official high and low records may vary slightly from our data, if they occured in-between our weather recording intervals... More about our weather records

Advertising

The Settlement weather history for previous 24 hours

 ConditionsComfort  
Time TempWeatherWind HumidityBarometerVisibility
8:00 AM
Dec 21
79 °FMostly cloudy.8 mph89%29.83 "HgN/A
7:00 AM77 °FMostly cloudy.8 mph89%29.83 "HgN/A
6:00 AM77 °FBroken clouds.7 mph89%29.80 "HgN/A
5:00 AM75 °FOvercast.7 mph94%29.77 "HgN/A
4:00 AM77 °FOvercast.9 mph89%29.77 "HgN/A
3:00 AM77 °FMostly cloudy.10 mph89%29.80 "HgN/A
2:00 AM77 °FMostly cloudy.9 mph89%29.83 "HgN/A
1:00 AM77 °FMostly cloudy.10 mph89%29.83 "HgN/A
12:00 AM77 °FMostly cloudy.10 mph89%29.86 "HgN/A
11:00 PM
Dec 20
77 °FMostly cloudy.13 mph89%29.89 "HgN/A
10:00 PM75 °FOvercast.6 mph94%29.89 "HgN/A
9:00 PM77 °FPartly cloudy.12 mph89%29.86 "HgN/A
8:00 PM77 °FOvercast.13 mph83%29.86 "HgN/A
7:00 PM77 °FPassing clouds.13 mph89%29.83 "HgN/A
6:00 PM77 °FLow clouds.12 mph94%29.83 "HgN/A
5:00 PM77 °FMostly cloudy.10 mph94%29.80 "HgN/A
4:00 PM77 °FLow clouds.10 mph94%29.80 "HgN/A
3:00 PM77 °FMostly cloudy.9 mph94%29.83 "HgN/A
2:00 PM77 °FMore clouds than sun.9 mph89%29.83 "HgN/A
1:00 PM77 °FCloudy.8 mph94%29.86 "HgN/A
12:00 PM75 °FLight rain. Mostly cloudy.8 mph100%29.86 "Hg4 mi
11:00 AM77 °FScattered clouds.6 mph94%29.89 "HgN/A
10:00 AM77 °FLight rain. Cloudy.3 mph94%29.89 "HgN/A
9:00 AM75 °FRain. Mostly cloudy.3 mph100%29.92 "Hg4 mi
Weather by CustomWeather, © 2014

See weather overviewHow to use our weather pages